Location: Dennis Manor
(64.8292°N, 147.5397°W)
Time: 08:54:46
(UTC+00:00)

Envisat - Pass Details

Date: 30 October 2020
Orbit: 764 x 766 km, 98.1° (Epoch: 05 December)

Event Time Altitude Azimuth Distance (km) Brightness Sun altitude
Rises 03:07:27 0° 181° (S) 3,230 6.4 -9.8°
Reaches altitude 10° 03:09:50 10° 187° (S) 2,308 5.7 -10.0°
Maximum altitude 03:14:44 47° 261° (W) 1,020 4.2 -10.6°
Drops below altitude 10° 03:19:40 10° 335° (NNW) 2,321 5.7 -11.1°
Sets 03:22:05 0° 342° (NNW) 3,251 6.4 -11.3°
